CZ-2D R/B, 28738

Orbit data source: Space-Track

CZ-2D R/B, 28738 is space debris in SSO originally from a launch on Tue, 05 Jul 2005 UTC launched from the Jiuquan Satellite Launch Center, China (JSC). Debris objects in space refer to the collection of defunct objects orbiting the Earth. Examples of debris include non-operational satellites, rocket bodies, and fragments generated from explosions, collisions, or faulty payload assembly.

Loading next visibility...
Identifier
28738, 2005-024B
Orbit
SSO
Country
Flag of CNCN / PRC
Related business
Manufacturer
BWYIC
Mission
Spacecraft
Bus & Motor
CZ-2 STAGE 2, Unknown motor
Mass
4,006 kg wet, 4,006 kg dry
Launch date (UTC)
2005-07-05 (20 years ago)
Launch vehicle
Unknown
Launch site
Jiuquan Satellite Launch Center, China (JSC)
Object type
Payload
Rocket body
Debris
Shape & HBR
Cyl + 1 Sail, 4.0 m
Radar Cross Section
25.456 m², Large (>1 m²)

Expand to show TLE details & history
Last TLE update: 8 hours ago

TLE from 8 hours ago
0 CZ-2D R/B
1 28738U 05024B   25243.53977134  .00029781  00000-0  60068-3 0  9994
2 28738  97.3702 248.7511 0005971  29.7206 330.4382 15.46474580110272
Epoch: 2025-08-31T12:57Z
TLE epoch observation values (Epoch: 2025-08-31T12:57:16.243Z)
Latitude
-0.00001°
Longitude
74.47517°
Altitude
426.641 km
Speed
7.657 km/s
True Right ascension
16h 35m 00s
True Declination
0° 00' 00"
Sunlit
Object was in daylight at epoch
Visualization orbit readout
Latitude
Unknown
Longitude
Unknown
Altitude
Unknown
Speed
Unknown
Apparent Right ascension
Unknown
Apparent Declination
Unknown
Sunlit
N/A
Visualization observer readout
Local Sidereal Time
12:46:24
Azimuth
Unknown
Elevation
Unknown
Doppler factor
Unknown
Orbital elements
Apogee altitude
428.039 km
Perigee altitude
419.916 km
Semi-major axis
6,802.115 km
Eccentricity
0.0006
Inclination
97.3702°
RAAN
248.7511°
Arg. of periapsis
29.7206°
True anomaly
330.40442°
Mean anomaly
330.4382°
Eccentric anomaly
330.42131°
Mean motion
3.86881 °/min
Orbital period
93.05 mins
BSTAR
0.00060068
Loading maneuver chart data...
Computing Atmospheric mass density...
Loading historical data...
Loading historical data...
Loading historical data...
Loading historical data...
Loading historical data...
Loading historical data...
Loading historical data...

Documentation

Showing up to 5 results
|